When you browse on this site, cookies collect data to enhance your experience and personalize the content and advertising you see.
Visit our Privacy Policy to learn more. By continuing to use the site, you agree to this use of cookies and data.
  • In France
  • List of Countries
  • For 7 days
  • Water Temperature
  • Satellite Maps
  • Weather Map
  • Weather Widgets
  • user-avatar
    Login

    Hourly Weather Durres

    Today, 19 February, Tuesday

    Time Temperature Precipitation Wind Pressure Humidity
    00:00 +10°C° 0 mm 1 mps 766 mmHg 70%
    01:00 +9°C° 0 mm 2 mps 766 mmHg 69%
    02:00 +9°C° 0 mm 2 mps 766 mmHg 69%
    03:00 +8°C° 0 mm 2 mps 766 mmHg 69%
    04:00 +8°C° 0 mm 2 mps 765 mmHg 69%
    05:00 +8°C° 0 mm 2 mps 766 mmHg 68%
    06:00 +8°C° 0 mm 2 mps 766 mmHg 68%
    07:00 +8°C° 0 mm 2 mps 766 mmHg 67%
    08:00 +10°C° 0 mm 3 mps 766 mmHg 62%
    09:00 +12°C° 0 mm 3 mps 766 mmHg 57%
    10:00 +13°C° 0 mm 3 mps 765 mmHg 52%
    11:00 +15°C° 0 mm 2 mps 765 mmHg 51%
    12:00 +16°C° 0 mm 2 mps 765 mmHg 49%
    13:00 +16°C° 0 mm 2 mps 765 mmHg 48%
    14:00 +16°C° 0 mm 2 mps 765 mmHg 52%
    15:00 +16°C° 0 mm 2 mps 765 mmHg 55%
    16:00 +15°C° 0 mm 2 mps 764 mmHg 58%
    17:00 +14°C° 0 mm 1 mps 765 mmHg 66%
    18:00 +13°C° 0 mm 1 mps 765 mmHg 73%
    19:00 +10°C° 0 mm 0 mps 765 mmHg 80%
    20:00 +11°C° 0 mm 1 mps 765 mmHg 81%
    21:00 +11°C° 0 mm 1 mps 765 mmHg 83%
    22:00 +10°C° 0 mm 1 mps 765 mmHg 84%
    23:00 +10°C° 0 mm 1 mps 765 mmHg 84%

    Tomorrow, 20 February, Wednesday

    Time Temperature Precipitation Wind Pressure Humidity
    00:00 +9°C° 0 mm 2 mps 765 mmHg 85%
    01:00 +8°C° 0 mm 2 mps 766 mmHg 86%
    02:00 +8°C° 0 mm 2 mps 765 mmHg 85%
    03:00 +8°C° 0 mm 2 mps 765 mmHg 85%
    04:00 +7°C° 0 mm 2 mps 765 mmHg 84%
    05:00 +7°C° 0 mm 2 mps 765 mmHg 82%
    06:00 +7°C° 0 mm 2 mps 765 mmHg 81%
    07:00 +7°C° 0 mm 3 mps 765 mmHg 79%
    08:00 +9°C° 0 mm 2 mps 765 mmHg 72%
    09:00 +12°C° 0 mm 2 mps 765 mmHg 65%
    10:00 +14°C° 0 mm 2 mps 766 mmHg 58%
    11:00 +14°C° 0 mm 2 mps 765 mmHg 57%
    12:00 +15°C° 0 mm 1 mps 765 mmHg 56%
    13:00 +16°C° 0 mm 1 mps 765 mmHg 54%
    14:00 +15°C° 0 mm 2 mps 765 mmHg 58%
    15:00 +14°C° 0 mm 3 mps 765 mmHg 61%
    16:00 +13°C° 0 mm 3 mps 765 mmHg 65%
    17:00 +12°C° 0 mm 3 mps 765 mmHg 73%
    18:00 +11°C° 0 mm 4 mps 766 mmHg 80%
    19:00 +10°C° 0 mm 4 mps 766 mmHg 88%
    20:00 +10°C° 0 mm 4 mps 766 mmHg 87%
    21:00 +9°C° 0 mm 3 mps 767 mmHg 86%
    22:00 +9°C° 0 mm 3 mps 767 mmHg 85%
    23:00 +9°C° 0 mm 3 mps 767 mmHg 83%

    Day after tomorrow, 21 February, Thursday

    Time Temperature Precipitation Wind Pressure Humidity
    00:00 +9°C° 0 mm 2 mps 767 mmHg 80%
    01:00 +8°C° 0 mm 2 mps 767 mmHg 77%
    02:00 +8°C° 0 mm 2 mps 767 mmHg 75%
    03:00 +8°C° 0 mm 2 mps 767 mmHg 72%
    04:00 +8°C° 0 mm 2 mps 767 mmHg 69%
    05:00 +8°C° 0 mm 2 mps 767 mmHg 68%
    06:00 +8°C° 0 mm 2 mps 768 mmHg 66%
    07:00 +8°C° 0 mm 2 mps 768 mmHg 65%
    08:00 +10°C° 0 mm 2 mps 768 mmHg 59%
    09:00 +13°C° 0 mm 2 mps 768 mmHg 52%
    10:00 +15°C° 0 mm 2 mps 768 mmHg 46%
    11:00 +16°C° 0 mm 3 mps 768 mmHg 45%
    12:00 +17°C° 0 mm 4 mps 768 mmHg 44%
    13:00 +18°C° 0 mm 4 mps 768 mmHg 44%
    14:00 +16°C° 0 mm 5 mps 767 mmHg 47%
    15:00 +15°C° 0 mm 5 mps 767 mmHg 51%
    16:00 +15°C° 0 mm 6 mps 767 mmHg 55%
    17:00 +14°C° 0 mm 6 mps 767 mmHg 63%
    18:00 +12°C° 0 mm 5 mps 768 mmHg 71%
    19:00 +10°C° 0 mm 5 mps 768 mmHg 79%
    20:00 +10°C° 0 mm 5 mps 768 mmHg 79%
    21:00 +10°C° 0 mm 4 mps 768 mmHg 80%
    22:00 +10°C° 0 mm 4 mps 768 mmHg 81%
    23:00 +10°C° 0 mm 3 mps 768 mmHg 81%

    22 February, Friday

    Time Temperature Precipitation Wind Pressure Humidity
    00:00 +9°C° 0 mm 3 mps 768 mmHg 81%
    01:00 +9°C° 0 mm 2 mps 768 mmHg 81%
    02:00 +9°C° 0 mm 2 mps 767 mmHg 80%
    03:00 +9°C° 0 mm 2 mps 767 mmHg 80%
    04:00 +9°C° 0 mm 2 mps 766 mmHg 79%
    05:00 +8°C° 0 mm 2 mps 766 mmHg 79%
    06:00 +8°C° 0 mm 2 mps 766 mmHg 79%
    07:00 +8°C° 0 mm 2 mps 766 mmHg 79%
    08:00 +10°C° 0 mm 2 mps 766 mmHg 74%
    09:00 +12°C° 0 mm 2 mps 765 mmHg 69%
    10:00 +14°C° 0 mm 1 mps 765 mmHg 64%
    11:00 +15°C° 0 mm 2 mps 764 mmHg 60%
    12:00 +16°C° 0 mm 3 mps 763 mmHg 56%
    13:00 +15°C° 0 mm 4 mps 763 mmHg 51%
    14:00 +15°C° 0 mm 5 mps 762 mmHg 54%
    15:00 +14°C° 0 mm 6 mps 762 mmHg 56%
    16:00 +14°C° 0 mm 6 mps 761 mmHg 58%
    17:00 +12°C° 0.1 mm 7 mps 761 mmHg 62%
    18:00 +11°C° 0.1 mm 7 mps 761 mmHg 65%
    19:00 +10°C° 0.1 mm 7 mps 761 mmHg 69%
    20:00 +10°C° 0 mm 8 mps 761 mmHg 68%
    21:00 +9°C° 0 mm 8 mps 761 mmHg 66%
    22:00 +9°C° 0 mm 8 mps 762 mmHg 64%
    23:00 +9°C° 0 mm 8 mps 762 mmHg 64%

    23 February, Saturday

    Time Temperature Precipitation Wind Pressure Humidity
    00:00 +7°C° 0 mm 8 mps 762 mmHg 64%
    01:00 +7°C° 0 mm 9 mps 762 mmHg 64%
    02:00 +6°C° 0 mm 10 mps 762 mmHg 61%
    03:00 +6°C° 0 mm 10 mps 762 mmHg 59%
    04:00 +4°C° 0 mm 11 mps 762 mmHg 56%
    05:00 +4°C° 0 mm 12 mps 762 mmHg 55%
    06:00 +3°C° 0 mm 13 mps 762 mmHg 53%
    07:00 +3°C° 0 mm 14 mps 763 mmHg 52%
    08:00 +4°C° 0 mm 14 mps 763 mmHg 46%
    09:00 +5°C° 0 mm 13 mps 764 mmHg 39%
    10:00 +7°C° 0 mm 13 mps 764 mmHg 33%
    11:00 +8°C° 0 mm 13 mps 764 mmHg 32%
    12:00 +8°C° 0 mm 13 mps 764 mmHg 30%
    13:00 +8°C° 0 mm 13 mps 764 mmHg 29%
    14:00 +7°C° 0 mm 13 mps 764 mmHg 29%
    15:00 +5°C° 0 mm 13 mps 764 mmHg 30%
    16:00 +5°C° 0 mm 13 mps 764 mmHg 30%
    17:00 +3°C° 0 mm 13 mps 765 mmHg 33%
    18:00 +1°C° 0 mm 13 mps 765 mmHg 36%
    19:00 -1°C° 0 mm 12 mps 766 mmHg 39%
    20:00 -1°C° 0 mm 12 mps 766 mmHg 39%
    21:00 -2°C° 0 mm 11 mps 767 mmHg 39%
    22:00 -2°C° 0 mm 11 mps 767 mmHg 38%
    23:00 -2°C° 0 mm 10 mps 767 mmHg 38%

    24 February, Sunday

    Time Temperature Precipitation Wind Pressure Humidity
    00:00 -3°C° 0 mm 10 mps 767 mmHg 38%
    01:00 -3°C° 0 mm 10 mps 767 mmHg 37%
    02:00 -3°C° 0 mm 10 mps 767 mmHg 37%
    03:00 -3°C° 0 mm 10 mps 767 mmHg 38%
    04:00 -3°C° 0 mm 10 mps 767 mmHg 38%
    05:00 -3°C° 0 mm 10 mps 767 mmHg 38%
    06:00 -3°C° 0 mm 10 mps 767 mmHg 37%
    07:00 -3°C° 0 mm 10 mps 767 mmHg 37%
    08:00 -2°C° 0 mm 10 mps 767 mmHg 33%
    09:00 0°C° 0 mm 10 mps 767 mmHg 30%
    10:00 +2°C° 0 mm 10 mps 767 mmHg 26%
    11:00 +3°C° 0 mm 10 mps 766 mmHg 25%
    12:00 +5°C° 0 mm 10 mps 766 mmHg 25%
    13:00 +6°C° 0 mm 10 mps 766 mmHg 24%
    14:00 +4°C° 0 mm 11 mps 765 mmHg 25%
    15:00 +4°C° 0 mm 11 mps 765 mmHg 26%
    16:00 +4°C° 0 mm 11 mps 765 mmHg 28%
    17:00 +3°C° 0 mm 12 mps 766 mmHg 31%
    18:00 0°C° 0 mm 12 mps 766 mmHg 35%
    19:00 -1°C° 0 mm 12 mps 766 mmHg 39%
    20:00 -2°C° 0 mm 12 mps 766 mmHg 40%
    21:00 -2°C° 0 mm 12 mps 767 mmHg 42%
    22:00 -4°C° 0 mm 13 mps 767 mmHg 44%
    23:00 -3°C° 0 mm 12 mps 766 mmHg 44%
    Show more